Location: Babice
(50.3480°N, 22.9363°E)
Time: 11:53:52
(UTC+00:00)

Abrixas rocket - Pass Details

Date: 14 July 2020
Orbit: 339 x 347 km, 48.4° (Epoch: 07 August)

Event Time Altitude Azimuth Distance (km) Brightness Sun altitude
Exits shadow 00:03:04 43° 234° (SW) 490 2.2 -15.4°
Maximum altitude 00:03:40 55° 186° (S) 415 1.8 -15.3°
Drops below altitude 10° 00:06:29 10° 107° (ESE) 1,282 4.8 -15.2°
Sets 00:08:30 0° 103° (ESE) 2,120 5.9 -15.1°
